#timestamp,LO_Frequency,Hit,Temp,Hum 
1480021215.0,286047014.1,N,0.0,0.0
1480021215.9,286047014.1,N,0.0,0.0
1480021235.8,286047014.6,N,0.0,0.0
1480021255.6,286047014.2,N,0.0,0.0
1480021275.4,286047014.9,N,0.0,0.0
1480021295.3,286047014.7,N,0.0,0.0
1480021315.1,286047014.7,N,0.0,0.0
1480021335.8,286047016.6,N,0.0,0.0
1480021355.7,286047016.8,N,0.0,0.0
1480021375.5,286047016.4,N,0.0,0.0
1480021395.4,286047014.7,N,0.0,0.0
1480021415.2,286047016.7,N,0.0,0.0
1480021435.0,286047014.8,N,0.0,0.0
1480021435.9,286047014.8,N,0.0,0.0
1480021455.8,286047014.7,N,0.0,0.0
1480021475.6,286047016.6,N,0.0,0.0
1480021495.5,286047014.1,N,0.0,0.0
1480021515.3,286047015.3,N,0.0,0.0
1480021535.1,286047015.5,N,0.0,0.0
1480021555.9,286047012.9,N,0.0,0.0
1480021575.7,286047012.7,N,0.0,0.0
1480021595.5,286047013.0,N,0.0,0.0
1480021615.4,286047014.9,N,0.0,0.0
1480021635.2,286047015.2,N,0.0,0.0
1480021655.1,286047014.9,N,0.0,0.0
1480021656.0,286047014.9,N,0.0,0.0
1480021675.8,286047014.5,N,0.0,0.0
1480021695.6,286047015.3,N,0.0,0.0
1480021715.5,286047015.0,N,0.0,0.0
1480021735.3,286047016.0,N,0.0,0.0
1480021755.2,286047016.2,N,0.0,0.0
1480021775.9,286047015.7,N,0.0,0.0
1480021795.7,286047018.5,N,0.0,0.0
1480021815.6,286047018.1,N,0.0,0.0
1480021835.4,286047018.0,N,0.0,0.0
1480021855.2,286047017.6,N,0.0,0.0
1480021875.1,286047018.5,N,0.0,0.0
1480021876.0,286047018.5,N,0.0,0.0
1480021895.8,286047016.4,N,0.0,0.0
1480021915.7,286047014.2,N,0.0,0.0
1480021935.5,286047016.1,N,0.0,0.0
1480021955.3,286047018.6,N,0.0,0.0
1480021975.2,286047018.2,N,0.0,0.0
1480021995.9,286047017.6,N,0.0,0.0
1480022015.7,286047017.7,N,0.0,0.0
1480022035.6,286047017.5,N,0.0,0.0
1480022055.4,286047017.4,N,0.0,0.0
1480022075.3,286047020.3,N,0.0,0.0
1480022095.1,286047020.1,N,0.0,0.0
1480022096.0,286047020.1,N,0.0,0.0
1480022115.8,286047019.0,N,0.0,0.0
1480022135.7,286047019.0,N,0.0,0.0
1480022155.5,286047019.1,N,0.0,0.0
1480022175.3,286047019.0,N,0.0,0.0
1480022195.2,286047019.4,N,0.0,0.0
1480022215.0,286047019.4,N,0.0,0.0
1480022215.9,286047019.4,N,0.0,0.0
1480022235.8,286047019.9,N,0.0,0.0
1480022255.6,286047019.7,N,0.0,0.0
1480022275.4,286047019.5,N,0.0,0.0
1480022295.3,286047017.4,N,0.0,0.0
1480022315.1,286047020.0,N,0.0,0.0
1480022335.9,286047019.2,N,0.0,0.0
1480022355.7,286047021.5,N,0.0,0.0
1480022375.5,286047021.3,N,0.0,0.0
1480022395.4,286047020.1,N,0.0,0.0
1480022415.2,286047018.1,N,0.0,0.0
1480022435.0,286047018.5,N,0.0,0.0
1480022436.0,286047018.5,N,0.0,0.0
1480022455.8,286047017.7,N,0.0,0.0
1480022475.6,286047019.0,N,0.0,0.0
1480022495.5,286047021.8,N,0.0,0.0
1480022515.3,286047021.3,N,0.0,0.0
1480022535.1,286047021.3,N,0.0,0.0
1480022555.9,286047021.2,N,0.0,0.0
1480022575.7,286047021.1,N,0.0,0.0
1480022595.6,286047019.0,N,0.0,0.0
1480022615.4,286047019.1,N,0.0,0.0
1480022635.2,286047019.6,N,0.0,0.0
1480022655.1,286047019.5,N,0.0,0.0
1480022656.0,286047019.5,N,0.0,0.0
1480022675.8,286047019.2,N,0.0,0.0
1480022695.7,286047019.0,N,0.0,0.0
1480022715.5,286047021.6,N,0.0,0.0
1480022735.3,286047021.7,N,0.0,0.0
1480022755.2,286047019.4,N,0.0,0.0
1480022775.9,286047017.6,N,0.0,0.0
1480022795.7,286047018.4,N,0.0,0.0
1480022815.6,286047018.7,N,0.0,0.0
1480022835.4,286047018.1,N,0.0,0.0
1480022855.3,286047018.7,N,0.0,0.0
1480022875.1,286047015.7,N,0.0,0.0
1480022876.0,286047015.7,N,0.0,0.0
1480022895.8,286047016.3,N,0.0,0.0
1480022915.7,286047014.8,N,0.0,0.0
1480022935.5,286047015.4,N,0.0,0.0
1480022955.3,286047012.5,N,0.0,0.0
1480022975.2,286047015.2,N,0.0,0.0
1480022995.0,286047015.3,N,0.0,0.0
1480022995.9,286047015.3,N,0.0,0.0
1480023015.8,286047012.6,N,0.0,0.0
1480023035.6,286047015.4,N,0.0,0.0
1480023055.4,286047014.5,N,0.0,0.0
1480023075.3,286047017.2,N,0.0,0.0
1480023095.1,286047015.9,N,0.0,0.0
1480023115.9,286047018.5,N,0.0,0.0
1480023135.7,286047018.1,N,0.0,0.0
1480023155.5,286047016.1,N,0.0,0.0
1480023175.4,286047014.1,N,0.0,0.0
1480023195.2,286047014.2,N,0.0,0.0
1480023215.0,286047017.1,N,0.0,0.0
1480023215.9,286047017.1,N,0.0,0.0
1480023235.8,286047015.3,N,0.0,0.0
1480023255.6,286047012.6,N,0.0,0.0
1480023275.5,286047013.1,N,0.0,0.0
1480023295.3,286047013.3,N,0.0,0.0
1480023315.1,286047013.8,N,0.0,0.0
1480023335.9,286047013.5,N,0.0,0.0
1480023355.7,286047013.9,N,0.0,0.0
1480023375.5,286047013.8,N,0.0,0.0
1480023395.4,286047012.8,N,0.0,0.0
1480023415.2,286047013.7,N,0.0,0.0
1480023435.1,286047011.0,N,0.0,0.0
1480023436.0,286047011.0,N,0.0,0.0
1480023455.8,286047014.0,N,0.0,0.0
1480023475.6,286047013.3,N,0.0,0.0
1480023495.5,286047013.9,N,0.0,0.0
1480023515.3,286047013.5,N,0.0,0.0
1480023535.1,286047013.5,N,0.0,0.0
1480023555.9,286047013.5,N,0.0,0.0
1480023575.7,286047012.8,N,0.0,0.0
1480023595.6,286047013.3,N,0.0,0.0
1480023615.4,286047012.9,N,0.0,0.0
1480023635.2,286047015.2,N,0.0,0.0
1480023655.1,286047014.7,N,0.0,0.0
1480023656.0,286047014.7,N,0.0,0.0
1480023675.8,286047015.1,N,0.0,0.0
1480023695.7,286047015.1,N,0.0,0.0
1480023715.5,286047015.3,N,0.0,0.0
1480023735.3,286047014.8,N,0.0,0.0
1480023755.2,286047017.2,N,0.0,0.0
1480023775.0,286047016.4,N,0.0,0.0
1480023775.9,286047016.4,N,0.0,0.0
1480023795.8,286047018.7,N,0.0,0.0
1480023815.6,286047018.7,N,0.0,0.0
1480023835.4,286047018.7,N,0.0,0.0
1480023855.3,286047016.4,N,0.0,0.0
1480023875.1,286047015.9,N,0.0,0.0
1480023895.9,286047016.1,N,0.0,0.0
1480023915.7,286047015.8,N,0.0,0.0
1480023935.5,286047016.1,N,0.0,0.0
1480023955.4,286047016.2,N,0.0,0.0
1480023975.2,286047016.5,N,0.0,0.0
1480023995.0,286047015.9,N,0.0,0.0
1480023995.9,286047015.9,N,0.0,0.0
1480024015.8,286047016.0,N,0.0,0.0
1480024035.6,286047016.0,N,0.0,0.0
1480024055.5,286047016.0,N,0.0,0.0
1480024075.3,286047016.5,N,0.0,0.0
1480024095.1,286047016.8,N,0.0,0.0
1480024115.9,286047016.6,N,0.0,0.0
1480024135.7,286047015.8,N,0.0,0.0
1480024155.5,286047018.5,N,0.0,0.0
1480024175.4,286047018.5,N,0.0,0.0
1480024195.2,286047017.7,N,0.0,0.0
1480024215.1,286047017.7,N,0.0,0.0
1480024216.0,286047017.7,N,0.0,0.0
1480024235.8,286047017.9,N,0.0,0.0
1480024255.6,286047020.2,N,0.0,0.0
1480024275.5,286047017.8,N,0.0,0.0
1480024295.3,286047017.3,N,0.0,0.0
1480024315.1,286047020.3,N,0.0,0.0
1480024335.9,286047020.3,N,0.0,0.0
1480024355.7,286047017.3,N,0.0,0.0
1480024375.6,286047017.4,N,0.0,0.0
1480024395.4,286047020.4,N,0.0,0.0
1480024415.2,286047020.4,N,0.0,0.0
1480024435.1,286047020.0,N,0.0,0.0
1480024436.0,286047020.0,N,0.0,0.0
1480024455.8,286047020.0,N,0.0,0.0
1480024475.7,286047020.3,N,0.0,0.0
1480024495.5,286047020.0,N,0.0,0.0
1480024515.3,286047021.8,N,0.0,0.0
1480024535.2,286047021.7,N,0.0,0.0
1480024555.0,286047021.1,N,0.0,0.0
1480024555.9,286047021.1,N,0.0,0.0
1480024575.8,286047023.3,N,0.0,0.0
1480024595.6,286047022.5,N,0.0,0.0
1480024615.4,286047023.0,N,0.0,0.0
1480024635.3,286047023.4,N,0.0,0.0
1480024655.1,286047023.6,N,0.0,0.0
1480024675.8,286047023.2,N,0.0,0.0
1480024695.7,286047020.9,N,0.0,0.0
1480024715.5,286047023.6,N,0.0,0.0
1480024735.4,286047023.0,N,0.0,0.0
1480024755.2,286047022.6,N,0.0,0.0
1480024775.0,286047022.7,N,0.0,0.0
1480024775.9,286047022.7,N,0.0,0.0
1480024795.8,286047022.6,N,0.0,0.0
